{"data":{"norad_id":65741,"intl_designator":"2025-216H","name":"STARLINK-35284","alt_names":[],"object_type":"PAYLOAD","status":"ACTIVE","operator":null,"country":"US","launch_date":"2025-09-25","launch_site_code":"AFETR","launch_vehicle":null,"mission":null,"orbit_class":"UNKNOWN","rcs_meters":null,"size_class":null,"mass_kg":null,"dimensions":null,"purposes":["comms"],"wikipedia_slug":null,"has_3d_model":false,"image_url":null,"decayed_at":null,"tle_current":{"epoch":"2026-09-20T23:05:25.406304Z","epoch_age_seconds":68608,"freshness":"FRESH","line1":"1 65741U 25216H   26263.96209961  .00022229  00000+0  66702-3 0  9990","line2":"2 65741  53.1552 143.5405 0001217  94.6693 265.4449 15.34402550 56471","mean_motion":15.3440255,"eccentricity":0.0001217,"inclination_deg":53.1552,"raan_deg":143.5405,"arg_perigee_deg":94.6693,"mean_anomaly_deg":265.4449,"bstar":0.00066702,"rev_number":5647,"period_min":93.847602117189,"perigee_km":461.86313174536,"apogee_km":463.52819041507,"semimajor_km":6840.8326610802,"source":"CELESTRAK","updated_at":"2026-09-21T09:00:35.692649Z"}}}